Regional Weather Roundup
Issued by NWS

Home | Current Version | Previous Version | Text Only | Print | Product List | Glossary On
Versions: 1 2 3 4 5 6 7 8 9 10 11 12 13 14 15 16 17 18 19 20 21 22 23 24 25 26 27
000
ASUS45 KBOU 171510
RWRCO

WEATHER ROUNDUP FOR COLORADO
NATIONAL WEATHER SERVICE DENVER/BOULDER CO
800 AM MST SUN DEC 17 2017

NOTE: "FAIR" INDICATES FEW OR NO CLOUDS BELOW 12000 FEET WITH NO
SIGNIFICANT WEATHER AND/OR OBSTRUCTIONS TO VISIBILITY.

COZ001>005-013-030-031-171600-
...NORTHWEST COLORADO...

CITY           SKY/WX    TMP DP  RH WIND       PRES   REMARKS
CRAIG          CLOUDY    21  16  81 CALM      30.07R
HAYDEN         CLOUDY    19  15  84 CALM      30.07R
MEEKER         CLOUDY    14   8  77 E3        30.06R
RABBIT EARS PA FOG       14  14 100 W10       29.96R VSB 1/4 WCI   1
STEAMBOAT SPGS CLOUDY    15  11  82 CALM      30.04R
WALDEN         FAIR       0  -6  78 SE9       29.99R WCI -16
$$

COZ006>008-011-171600-
...WEST CENTRAL VALLEYS...

CITY           SKY/WX    TMP DP  RH WIND       PRES   REMARKS
GRAND JUNCTION FAIR      15   4  61 E6        30.07R WCI   6
MONTROSE       FAIR      16   6  65 SE8       30.08R WCI   5
EAGLE          FAIR       4   0  83 CALM      30.10R
RIFLE          FAIR      13   6  74 SW5       30.08R WCI   5
DELTA          FAIR      18   1  46 CALM      30.07S
NUCLA          FAIR      19  -4  35 E7        30.07  WCI  10
$$

COZ017>023-064>068-171600-
...SOUTHWEST COLORADO...

CITY           SKY/WX    TMP DP  RH WIND       PRES   REMARKS
DURANGO        FAIR      18   6  59 N3        30.01R
CORTEZ         FAIR      19   1  45 NE7       30.03R WCI  10
PAGOSA SPRINGS FAIR      21   5  50 CALM      30.03R
TELLURIDE      FAIR      22  -3  32 SE7       30.02S WCI  14
WOLF CREEK PAS CLOUDY    14  -6  41 SW12      30.07R WCI   0
$$

COZ009-010-012-014-032>034-037-058>063-171600-
...CENTRAL COLORADO...

CITY           SKY/WX    TMP DP  RH WIND       PRES   REMARKS
ASPEN          FAIR      12   2  64 S7        30.00R WCI   1
BUENA VISTA    FAIR      15   9  75 W5        29.97S WCI   8
COPPER MTN     NOT AVBL
BERTHOUD PASS  FAIR      12   1  62 W32G39    29.93S WCI -10
COTTONWOOD PAS FAIR      32  -6  19 W3        29.96S
GUNNISON       FAIR       7   2  80 CALM      30.06R
KREMMLING      FAIR       1  -4  78 CALM      30.07R
LEADVILLE      FAIR      10  -5  50 N5        29.97R WCI   2
MONARCH PASS   FAIR      16  -4  41 W26       30.09S WCI  -3
SALIDA         FAIR      20   9  62 N5        30.05S WCI  14
SUNLIGHT       FAIR      14  -4  44 SW12      30.03R WCI   0
WILKERSON PASS CLOUDY    19  -4  35 SW13G20   29.98R WCI   7
$$

COZ069>075-171600-
...SAN LUIS VALLEY/SANGRE DE CRISTO MOUNTAINS...

CITY           SKY/WX    TMP DP  RH WIND       PRES   REMARKS
ALAMOSA        CLOUDY    17  12  80 NW3       30.00R
DEL NORTE      MOCLDY    16  10  76 CALM      30.01R
LA VETA PASS   CLOUDY    25   0  33 SW23G33     N/A  WCI  10
SAGUACHE       FAIR      14   5  67 NW7       30.01R WCI   4
$$

COZ035-036-038>040-171600-
...NORTHERN COLORADO FRONT RANGE...

CITY           SKY/WX    TMP DP  RH WIND       PRES   REMARKS
DENVER INTL AP CLOUDY    29  26  89 CALM      30.01S
DMNS CITY PARK NOT AVBL
AURORA         CLOUDY    28  28  99 E3        30.00S
FRONT RANGE AP CLOUDY    30  30 100 CALM      30.02R
ERIE MUNI ARPT CLOUDY    31  30  94 NE3       30.07S
BOULDER MUN AP CLOUDY    32  30  93 NE3       30.00S
CENTENNIAL     CLOUDY    29  26  89 CALM      29.99S
BROOMFIELD     CLOUDY    30  28  93 NE3       30.00S
FORT COLLINS   CLOUDY    30  29  96 S5        30.02S WCI  25
LONGMONT       CLOUDY    33  31  94 CALM      30.04R FOG
$$

COZ041-046-047-076>085-087-088-171600-
...PIKES PEAK/PALMER DIVIDE AND SOUTHERN FOOTHILLS...

CITY           SKY/WX    TMP DP  RH WIND       PRES   REMARKS
COLO. SPRINGS  CLOUDY    24  22  91 SE3       30.02R FOG
A. F. ACADEMY  CLOUDY    23  20  88 S5        29.99R WCI  17
SCHRIEVER AFB  FRZ DRZL  23  23 100 W3        30.02R FOG
CHEYENNE MTN   CLOUDY    22  20  92 S5        29.93R WCI  16
ELLICOTT         N/A    N/A N/A N/A SW3       30.00R
FALCON         CLOUDY    23  22  95 W3        30.00R
FORT CARSON    CLOUDY    26  24  91 SW7       30.01R WCI  18
LIMON          CLOUDY    29  25  85 N8        30.02R WCI  21
MONUMENT HILL  CLOUDY    23  23 100 CALM      29.99R
CANON CITY     CLOUDY    28  28 100 CALM      30.04R FOG
WALSENBURG     CLOUDY    25  19  80 CALM      30.02R
TRINIDAD       CLOUDY    25  22  88 S3        30.01S
$$

COZ042>045-048>051-090-091-171600-
...NORTHEAST COLORADO...

CITY           SKY/WX    TMP DP  RH WIND       PRES   REMARKS
GREELEY ARPT   CLOUDY    30  29  96 SE7       30.04R WCI  23
AKRON          CLOUDY    29  27  92 CALM      30.02S FOG
BURLINGTON     CLOUDY    32  31  96 N7        30.03R WCI  26
WRAY           CLOUDY   N/A N/A N/A N5        30.04S
YUMA           CLOUDY    30  30 100 N6        30.03S FOG     WCI  24
STERLING       CLOUDY    32  32 100 CALM      30.04R
HOLYOKE        CLOUDY    34  32  93 NW7       30.05R FOG     WCI  28
FORT MORGAN    CLOUDY    30  29  96 CALM      30.05R
$$

COZ086-089-092>099-171600-
...SOUTHEAST COLORADO...

CITY           SKY/WX    TMP DP  RH WIND       PRES   REMARKS
PUEBLO         CLOUDY    31  24  75 W5        30.05R WCI  26
LA JUNTA       CLOUDY    33  27  78 W3        30.05S
LAMAR          CLOUDY    33  26  75 NW5       30.03F WCI  29
SPRINGFIELD      N/A     30  26  85 N15       30.01R WCI  19
$$




USA.gov is the U.S. government's official web portal to all federal, state and local government web resources and services.